Time,TemperatureF,DewpointF,PressureIn,WindDirection,WindDirectionDegrees,WindSpeedMPH,WindSpeedGustMPH,Humidity,HourlyPrecipIn,Conditions,Clouds,dailyrainin,SolarRadiationWatts/m^2,SoftwareType,DateUTC
2013-04-10 00:03:00,69.3,64.6,30.11,East,85,0.0,2.0,85,0.00,,---,0.00,0.00,VWS V14.01,2013-04-10 04:03:00,
2013-04-10 00:33:00,69.0,64.6,30.10,East,85,0.0,2.0,86,0.00,,---,0.00,0.00,VWS V14.01,2013-04-10 04:33:00,
2013-04-10 01:03:00,68.5,64.5,30.10,East,85,0.0,0.0,87,0.00,,---,0.00,0.00,VWS V14.01,2013-04-10 05:03:00,
2013-04-10 01:33:00,68.3,64.9,30.09,East,85,0.0,2.0,89,0.00,,---,0.00,0.00,VWS V14.01,2013-04-10 05:33:00,
2013-04-10 02:03:00,68.6,64.9,30.08,East,85,0.0,2.0,88,0.00,,---,0.00,0.00,VWS V14.01,2013-04-10 06:03:00,
2013-04-10 02:33:00,69.0,65.6,30.07,East,85,2.0,3.0,89,0.00,,---,0.00,0.00,VWS V14.01,2013-04-10 06:33:00,
2013-04-10 03:03:00,69.0,65.6,30.06,East,85,0.0,3.0,89,0.00,,---,0.00,0.00,VWS V14.01,2013-04-10 07:03:00,
2013-04-10 03:33:00,69.0,65.9,30.05,East,85,2.0,4.0,90,0.00,,---,0.00,0.00,VWS V14.01,2013-04-10 07:33:00,
2013-04-10 04:03:00,69.0,65.9,30.05,East,86,0.0,4.0,90,0.00,,---,0.00,0.00,VWS V14.01,2013-04-10 08:03:00,
2013-04-10 04:33:00,68.7,66.0,30.05,East,86,0.0,0.0,91,0.00,,---,0.00,0.00,VWS V14.01,2013-04-10 08:33:00,
2013-04-10 05:03:00,68.5,66.1,30.05,East,86,0.0,0.0,92,0.00,,---,0.00,0.00,VWS V14.01,2013-04-10 09:03:00,
2013-04-10 05:33:00,67.4,64.4,30.05,East,86,0.0,0.0,90,0.00,,---,0.00,0.00,VWS V14.01,2013-04-10 09:33:00,
2013-04-10 06:03:00,66.3,63.3,30.05,East,86,0.0,0.0,90,0.00,,---,0.00,0.00,VWS V14.01,2013-04-10 10:03:00,
2013-04-10 06:33:00,65.5,63.1,30.05,East,86,0.0,0.0,92,0.00,,---,0.00,0.00,VWS V14.01,2013-04-10 10:33:00,
2013-04-10 07:03:00,67.0,65.5,30.05,East,86,0.0,2.0,95,0.00,,---,0.00,0.00,VWS V14.01,2013-04-10 11:03:00,
2013-04-10 07:33:00,68.4,67.2,30.06,East,86,1.0,4.0,96,0.00,,---,0.00,30.00,VWS V14.01,2013-04-10 11:33:00,
2013-04-10 08:03:00,70.5,69.0,30.07,ESE,116,2.0,5.0,95,0.00,,---,0.00,53.00,VWS V14.01,2013-04-10 12:03:00,
2013-04-10 08:33:00,73.9,69.8,30.07,ESE,122,5.0,9.0,87,0.00,,---,0.00,251.00,VWS V14.01,2013-04-10 12:33:00,
2013-04-10 09:03:00,75.8,69.9,30.07,ESE,115,3.0,13.0,82,0.00,,---,0.00,353.00,VWS V14.01,2013-04-10 13:03:00,
2013-04-10 09:33:00,77.2,70.2,30.07,ESE,111,4.0,13.0,79,0.00,,---,0.00,475.00,VWS V14.01,2013-04-10 13:33:00,
2013-04-10 10:03:00,78.8,70.2,30.08,East,101,6.0,12.0,75,0.00,,---,0.00,601.00,VWS V14.01,2013-04-10 14:03:00,
2013-04-10 10:33:00,79.1,70.9,30.08,East,94,6.0,17.0,76,0.00,,---,0.00,687.00,VWS V14.01,2013-04-10 14:33:00,
2013-04-10 11:03:00,80.1,70.7,30.09,ESE,122,10.0,15.0,73,0.00,,---,0.00,888.00,VWS V14.01,2013-04-10 15:03:00,
2013-04-10 11:33:00,78.9,69.9,30.09,East,81,12.0,17.0,74,0.00,,---,0.00,592.00,VWS V14.01,2013-04-10 15:33:00,
2013-04-10 12:03:00,81.6,70.4,30.08,ESE,106,6.0,16.0,69,0.00,,---,0.00,928.00,VWS V14.01,2013-04-10 16:03:00,
2013-04-10 12:33:00,81.5,70.4,30.08,East,82,5.0,15.0,69,0.00,,---,0.00,1032.00,VWS V14.01,2013-04-10 16:33:00,
2013-04-10 13:03:00,83.0,71.4,30.07,East,90,9.0,15.0,68,0.00,,---,0.00,979.00,VWS V14.01,2013-04-10 17:03:00,
2013-04-10 13:33:00,81.4,71.1,30.06,ESE,108,6.0,16.0,71,0.00,,---,0.00,1153.00,VWS V14.01,2013-04-10 17:33:00,
2013-04-10 14:03:00,80.6,71.6,30.05,East,85,4.0,16.0,74,0.00,,---,0.00,1130.00,VWS V14.01,2013-04-10 18:03:00,
2013-04-10 14:33:00,82.2,73.1,30.05,East,91,5.0,15.0,74,0.00,,---,0.00,1067.00,VWS V14.01,2013-04-10 18:33:00,
2013-04-10 15:03:00,83.0,72.2,30.04,SE,141,3.0,16.0,70,0.00,,---,0.00,578.00,VWS V14.01,2013-04-10 19:03:00,
2013-04-10 15:33:00,82.5,73.8,30.03,East,100,9.0,17.0,75,0.00,,---,0.00,928.00,VWS V14.01,2013-04-10 19:33:00,
2013-04-10 16:03:00,82.8,72.9,30.02,East,90,4.0,15.0,72,0.00,,---,0.00,638.00,VWS V14.01,2013-04-10 20:03:00,
2013-04-10 16:33:00,80.3,72.8,30.02,ESE,117,12.0,15.0,78,0.00,,---,0.00,330.00,VWS V14.01,2013-04-10 20:33:00,
2013-04-10 17:03:00,79.6,72.5,30.00,East,86,5.0,16.0,79,0.00,,---,0.00,534.00,VWS V14.01,2013-04-10 21:03:00,
2013-04-10 17:33:00,79.2,72.1,30.00,East,89,8.0,14.0,79,0.00,,---,0.00,185.00,VWS V14.01,2013-04-10 21:33:00,
2013-04-10 18:03:00,78.4,72.4,30.01,East,90,6.0,15.0,82,0.00,,---,0.00,197.00,VWS V14.01,2013-04-10 22:03:00,
2013-04-10 18:33:00,77.3,72.1,30.00,East,83,4.0,16.0,84,0.00,,---,0.00,100.00,VWS V14.01,2013-04-10 22:33:00,
2013-04-10 19:03:00,76.7,71.9,30.01,East,82,5.0,12.0,85,0.00,,---,0.00,51.00,VWS V14.01,2013-04-10 23:03:00,
2013-04-10 19:33:00,75.8,71.7,30.00,SSE,158,5.0,13.0,87,0.00,,---,0.00,11.00,VWS V14.01,2013-04-10 23:33:00,
2013-04-10 20:03:00,75.0,71.2,30.00,East,100,2.0,12.0,88,0.00,,---,0.00,0.00,VWS V14.01,2013-04-11 00:03:00,
2013-04-10 20:33:00,74.6,71.2,30.00,ESE,116,3.0,10.0,89,0.00,,---,0.00,0.00,VWS V14.01,2013-04-11 00:33:00,
2013-04-10 21:03:00,74.4,71.3,30.00,ESE,113,3.0,10.0,90,0.00,,---,0.00,0.00,VWS V14.01,2013-04-11 01:03:00,
2013-04-10 21:33:00,74.3,71.5,30.02,ESE,114,1.0,10.0,91,0.00,,---,0.00,0.00,VWS V14.01,2013-04-11 01:33:00,
2013-04-10 22:03:00,74.2,71.4,30.02,SE,127,4.0,9.0,91,0.00,,---,0.00,0.00,VWS V14.01,2013-04-11 02:03:00,
2013-04-10 22:33:00,74.3,71.5,30.02,ESE,122,1.0,10.0,91,0.00,,---,0.00,0.00,VWS V14.01,2013-04-11 02:33:00,
2013-04-10 23:03:00,74.3,71.8,30.02,ESE,113,4.0,7.0,92,0.00,,---,0.00,0.00,VWS V14.01,2013-04-11 03:03:00,
2013-04-10 23:33:00,74.4,71.9,30.02,ESE,103,4.0,9.0,92,0.00,,---,0.00,0.00,VWS V14.01,2013-04-11 03:33:00,